Weather History for KSJN - March, 2012

Change the Weather History Date:

Wednesday, March 7, 2012

  Actual Average (KSOW) Record (KSOW)
Temperature  
Mean Temperature 38 °F -  
Max Temperature 51 °F 52 °F 73 °F (1972)
Min Temperature 26 °F 31 °F 10 °F (1971)
Degree Days  
Heating Degree Days 26    
Moisture  
Dew Point 14 °F    
Average Humidity 37    
Maximum Humidity 69    
Minimum Humidity 19    
Precipitation  
Precipitation 0.00 in - - ()
Sea Level Pressure  
Sea Level Pressure 29.68 in    
Wind  
Wind Speed 18 mph (SW)    
Max Wind Speed 37 mph    
Max Gust Speed 46 mph    
Visibility 10 miles    
Events      
Averages and records for this station are not official NWS values.
T = Trace of Precipitation, MM = Missing Value Source: NWS Daily Summary

Daily Weather History Graph

Daily Weather History Graph

Search for Another Location

Airport or City:

Trip Planner

Search our weather history database for the weather conditions in past years. The results will help you decide how hot, cold, wet, or windy it might be!

Date:

Astronomy

Mar. 07, 2012 Rise Set
Actual Time 6:38 AM MST 6:19 PM MST
Civil Twilight 6:12 AM MST 6:44 PM MST
Nautical Twilight 5:43 AM MST 7:13 PM MST
Astronomical Twilight 5:14 AM MST 7:42 PM MST
Moon 5:58 PM MST (3/7) 5:49 AM MST (3/7)
Length of Visible Light 12h 31m
Length of Day
11h 41m
Waxing Gibbous, 99% of the Moon is Illuminated
Mar 7
Waxing Gibbous
Mar 8
Full
Mar 14
Last Quarter
Mar 22
New
Mar 30
First Quarter

Hourly Weather History & Observations

Time (MST) Temp. Windchill Dew Point Humidity Pressure Visibility Wind Dir Wind Speed Gust Speed Precip Events Conditions
12:54 AM 48.2 °F - 6.8 °F 19% 29.68 in 10.0 mi SSW 15.0 mph - N/A   Clear
1:54 AM 45.0 °F 38.9 °F 7.0 °F 21% 29.49 in 10.0 mi South 12.7 mph - N/A   Clear
2:54 AM 44.1 °F 38.1 °F 7.0 °F 22% 29.47 in 10.0 mi South 11.5 mph 21.9 mph N/A   Clear
3:54 AM 46.0 °F 37.8 °F 8.1 °F 21% 29.47 in 10.0 mi SSW 23.0 mph 29.9 mph N/A   Clear
4:54 AM 45.0 °F 36.6 °F 10.0 °F 24% 29.48 in 10.0 mi SSW 21.9 mph 35.7 mph N/A   Clear
5:54 AM 44.1 °F 35.0 °F 10.9 °F 26% 29.49 in 10.0 mi SSW 24.2 mph 31.1 mph N/A   Clear
6:54 AM 43.0 °F 34.2 °F 10.9 °F 27% 29.51 in 10.0 mi South 20.7 mph 32.2 mph N/A   Clear
7:54 AM 46.0 °F 38.0 °F 12.0 °F 25% 29.53 in 10.0 mi SSW 21.9 mph 31.1 mph N/A   Clear
8:54 AM 48.0 °F - 12.0 °F 24% 29.55 in 10.0 mi SW 20.7 mph 36.8 mph N/A   Clear
9:54 AM 48.9 °F - 12.9 °F 24% 29.57 in 10.0 mi SSW 24.2 mph 36.8 mph N/A   Clear
10:54 AM 50.0 °F - 12.0 °F 22% 29.58 in 10.0 mi SW 29.9 mph 43.7 mph N/A   Clear
11:54 AM 51.1 °F - 12.9 °F 22% 29.59 in 9.0 mi SW 36.8 mph 46.0 mph N/A   Clear
12:54 PM 51.1 °F - 15.1 °F 24% 29.60 in 10.0 mi SW 26.5 mph 42.6 mph N/A   Clear
1:54 PM 48.0 °F - 23.0 °F 37% 29.64 in 10.0 mi West 26.5 mph 39.1 mph N/A   Scattered Clouds
2:54 PM 46.0 °F 37.2 °F 23.0 °F 40% 29.69 in 10.0 mi WSW 26.5 mph 35.7 mph N/A   Mostly Cloudy
3:54 PM 42.1 °F 32.6 °F 19.9 °F 41% 29.72 in 10.0 mi WSW 23.0 mph 33.4 mph N/A   Mostly Cloudy
4:54 PM 37.9 °F 26.8 °F 19.9 °F 48% 29.78 in 10.0 mi SW 24.2 mph 32.2 mph 0.00 in   Overcast
5:54 PM 37.0 °F 29.3 °F 18.0 °F 46% 29.81 in 10.0 mi SW 11.5 mph - N/A   Overcast
6:50 PM 33.8 °F 25.8 °F 15.8 °F 48% 29.92 in 10.0 mi West 10.4 mph - N/A   Scattered Clouds
6:54 PM 34.0 °F 26.0 °F 16.0 °F 48% 29.86 in 10.0 mi West 10.4 mph - N/A   Scattered Clouds
7:54 PM 30.0 °F 25.2 °F 19.0 °F 64% 29.90 in 10.0 mi WSW 4.6 mph - N/A   Partly Cloudy
8:54 PM 26.1 °F 18.4 °F 16.0 °F 66% 29.91 in 9.0 mi SW 6.9 mph - N/A   Clear
9:54 PM 26.6 °F 22.6 °F 17.6 °F 69% 29.96 in 9.0 mi SSW 3.5 mph - N/A   Scattered Clouds
10:54 PM 27.0 °F 21.6 °F 14.0 °F 58% 29.92 in 10.0 mi South 4.6 mph - N/A   Scattered Clouds
11:54 PM 26.1 °F 19.4 °F 12.9 °F 58% 29.93 in 10.0 mi South 5.8 mph - N/A   Mostly Cloudy